EZY2W EGKK-EGJJ

Flight info

Callsign EZY2W
Flight time 0h 34m
Altitude 24000
Route IMVUR N63 LELNA
Aircraft A20N/M-SDE2E3FGHIRWXY/LB1

Departure

Time 2026-05-04 19:20
Airport London Gatwick Airport (EGKK)

Arrival

Time 2026-05-04 19:54
Airport Jersey Airport (EGJJ)
Time Latitude Longitude Altitude Speed Heading
2026-05-04 18:51 51.15470 -0.17091 214 ft 0 kts 348°
2026-05-04 19:07 51.15458 -0.17086 217 ft 2 kts 343°
2026-05-04 19:07 51.15443 -0.17078 212 ft 2 kts 337°
2026-05-04 19:07 51.15429 -0.17065 212 ft 2 kts 316°
2026-05-04 19:07 51.15421 -0.17043 212 ft 2 kts 267°
2026-05-04 19:08 51.15422 -0.17030 207 ft 0 kts 259°
2026-05-04 19:13 51.15422 -0.17031 205 ft 1 kts 259°
2026-05-04 19:13 51.15418 -0.17063 205 ft 5 kts 259°
2026-05-04 19:13 51.15408 -0.17143 207 ft 9 kts 256°
2026-05-04 19:13 51.15381 -0.17262 213 ft 13 kts 246°
2026-05-04 19:14 51.15322 -0.17380 208 ft 15 kts 218°
2026-05-04 19:14 51.15282 -0.17541 208 ft 17 kts 257°
2026-05-04 19:14 51.15264 -0.17743 209 ft 20 kts 256°
2026-05-04 19:14 51.15230 -0.17972 215 ft 23 kts 257°
2026-05-04 19:15 51.15194 -0.18231 207 ft 25 kts 260°
2026-05-04 19:15 51.15161 -0.18519 213 ft 27 kts 257°
2026-05-04 19:15 51.15120 -0.18811 208 ft 25 kts 259°
2026-05-04 19:15 51.15082 -0.19096 209 ft 27 kts 258°
2026-05-04 19:16 51.15028 -0.19270 211 ft 11 kts 187°
2026-05-04 19:16 51.14965 -0.19327 214 ft 11 kts 245°
2026-05-04 19:16 51.14939 -0.19469 215 ft 16 kts 257°
2026-05-04 19:16 51.14910 -0.19655 214 ft 19 kts 256°
2026-05-04 19:17 51.14879 -0.19878 207 ft 23 kts 259°
2026-05-04 19:17 51.14845 -0.20143 204 ft 26 kts 258°
2026-05-04 19:17 51.14805 -0.20438 207 ft 27 kts 256°
2026-05-04 19:17 51.14763 -0.20740 204 ft 29 kts 258°
2026-05-04 19:18 51.14719 -0.21056 208 ft 30 kts 258°
2026-05-04 19:18 51.14661 -0.21317 211 ft 19 kts 213°
2026-05-04 19:18 51.14563 -0.21294 210 ft 14 kts 142°
2026-05-04 19:18 51.14510 -0.21163 210 ft 12 kts 76°
2026-05-04 19:19 51.14540 -0.21029 217 ft 14 kts 77°
2026-05-04 19:19 51.14592 -0.20644 209 ft 68 kts 77°
2026-05-04 19:19 51.14742 -0.19568 213 ft 127 kts 77°
2026-05-04 19:19 51.14955 -0.18033 515 ft 144 kts 77°
2026-05-04 19:20 51.15161 -0.16461 1141 ft 145 kts 78°
2026-05-04 19:20 51.15359 -0.14866 1735 ft 152 kts 76°
2026-05-04 19:20 51.15605 -0.13136 2201 ft 169 kts 75°
2026-05-04 19:20 51.15887 -0.11208 2712 ft 189 kts 75°
2026-05-04 19:21 51.16208 -0.08961 2961 ft 219 kts 76°
2026-05-04 19:21 51.16800 -0.06757 3004 ft 219 kts 50°
2026-05-04 19:21 51.18009 -0.05374 2997 ft 221 kts 19°
2026-05-04 19:21 51.19537 -0.05223 2999 ft 225 kts 350°
2026-05-04 19:22 51.21054 -0.05847 2998 ft 226 kts 338°
2026-05-04 19:22 51.22272 -0.07439 3002 ft 231 kts 305°
2026-05-04 19:22 51.22776 -0.09872 3000 ft 237 kts 272°
2026-05-04 19:22 51.22571 -0.12515 3007 ft 255 kts 260°
2026-05-04 19:23 51.22204 -0.15403 2998 ft 269 kts 259°
2026-05-04 19:23 51.21821 -0.18323 2995 ft 269 kts 259°
2026-05-04 19:23 51.21453 -0.21253 2999 ft 268 kts 259°
2026-05-04 19:23 51.21103 -0.24154 3028 ft 271 kts 260°
2026-05-04 19:24 51.20752 -0.27158 3507 ft 273 kts 260°
2026-05-04 19:24 51.20411 -0.30119 4646 ft 269 kts 260°
2026-05-04 19:24 51.20071 -0.33058 5827 ft 272 kts 260°
2026-05-04 19:24 51.19728 -0.36002 6913 ft 274 kts 259°
2026-05-04 19:25 51.19347 -0.39003 7961 ft 279 kts 258°
2026-05-04 19:25 51.18781 -0.41968 9021 ft 281 kts 241°
2026-05-04 19:25 51.17644 -0.44510 10080 ft 283 kts 231°
2026-05-04 19:25 51.16388 -0.47036 10717 ft 302 kts 231°
2026-05-04 19:26 51.15024 -0.49756 11103 ft 327 kts 231°
2026-05-04 19:26 51.13563 -0.52662 11674 ft 342 kts 231°
2026-05-04 19:26 51.12057 -0.55644 12534 ft 348 kts 231°
2026-05-04 19:26 51.10512 -0.58678 13404 ft 354 kts 231°
2026-05-04 19:27 51.08937 -0.61751 14182 ft 361 kts 231°
2026-05-04 19:27 51.07339 -0.64875 14755 ft 365 kts 231°
2026-05-04 19:27 51.05711 -0.67906 15212 ft 366 kts 223°
2026-05-04 19:27 51.03792 -0.70566 16066 ft 367 kts 220°
2026-05-04 19:28 51.01844 -0.73207 16923 ft 369 kts 219°
2026-05-04 19:28 50.99880 -0.75870 17743 ft 373 kts 219°
2026-05-04 19:28 50.97896 -0.78565 18510 ft 376 kts 219°
2026-05-04 19:28 50.95902 -0.81280 19221 ft 379 kts 219°
2026-05-04 19:29 50.93889 -0.84020 19757 ft 382 kts 219°
2026-05-04 19:29 50.91868 -0.86770 19949 ft 383 kts 219°
2026-05-04 19:29 50.89846 -0.89518 20009 ft 383 kts 219°
2026-05-04 19:29 50.87821 -0.92267 20007 ft 383 kts 219°
2026-05-04 19:30 50.85825 -0.94973 20013 ft 384 kts 219°
2026-05-04 19:30 50.83751 -0.97782 20010 ft 388 kts 219°
2026-05-04 19:30 50.81726 -1.00520 20011 ft 387 kts 219°
2026-05-04 19:30 50.79679 -1.03284 20011 ft 387 kts 219°
2026-05-04 19:31 50.77637 -1.06038 20012 ft 387 kts 219°
2026-05-04 19:31 50.75587 -1.08800 20011 ft 387 kts 219°
2026-05-04 19:31 50.73539 -1.11555 20009 ft 387 kts 219°
2026-05-04 19:31 50.71492 -1.14306 20008 ft 387 kts 219°
2026-05-04 19:32 50.69436 -1.17066 20011 ft 387 kts 219°
2026-05-04 19:32 50.67385 -1.19816 20004 ft 387 kts 219°
2026-05-04 19:32 50.65340 -1.22554 20005 ft 387 kts 219°
2026-05-04 19:32 50.63286 -1.25302 19988 ft 387 kts 219°
2026-05-04 19:33 50.61225 -1.28058 19996 ft 388 kts 218°
2026-05-04 19:33 50.59162 -1.30811 20005 ft 388 kts 218°
2026-05-04 19:33 50.57098 -1.33562 20001 ft 388 kts 218°
2026-05-04 19:33 50.55038 -1.36304 19990 ft 388 kts 218°
2026-05-04 19:34 50.52982 -1.39037 20007 ft 388 kts 218°
2026-05-04 19:34 50.50942 -1.41747 20008 ft 389 kts 218°
2026-05-04 19:34 50.48872 -1.44493 19993 ft 389 kts 218°
2026-05-04 19:34 50.46801 -1.47235 20004 ft 389 kts 218°
2026-05-04 19:35 50.44695 -1.50020 20003 ft 407 kts 218°
2026-05-04 19:35 50.43236 -1.51944 20000 ft 421 kts 218°
2026-05-04 19:35 50.40930 -1.54985 20015 ft 441 kts 218°
2026-05-04 19:35 50.38554 -1.58118 20000 ft 450 kts 218°
2026-05-04 19:36 50.36161 -1.61273 19991 ft 450 kts 218°
2026-05-04 19:36 50.33758 -1.64437 20001 ft 450 kts 218°
2026-05-04 19:36 50.31363 -1.67586 19998 ft 450 kts 218°
2026-05-04 19:36 50.28956 -1.70743 19998 ft 450 kts 218°
2026-05-04 19:37 50.26553 -1.73890 19999 ft 450 kts 218°
2026-05-04 19:37 50.24180 -1.76994 20003 ft 450 kts 218°
2026-05-04 19:37 50.21782 -1.80126 20001 ft 450 kts 218°
2026-05-04 19:37 50.19377 -1.83263 20007 ft 450 kts 218°
2026-05-04 19:38 50.16974 -1.86393 20004 ft 452 kts 218°
2026-05-04 19:38 50.14557 -1.89536 20004 ft 451 kts 218°
2026-05-04 19:38 50.12150 -1.92663 20002 ft 451 kts 218°
2026-05-04 19:38 50.09738 -1.95793 20000 ft 451 kts 218°
2026-05-04 19:39 50.07319 -1.98927 20002 ft 451 kts 218°
2026-05-04 19:39 50.04904 -2.02047 20002 ft 451 kts 218°
2026-05-04 19:39 50.02491 -2.05160 20001 ft 450 kts 218°
2026-05-04 19:39 50.00096 -2.08130 19958 ft 428 kts 213°
2026-05-04 19:40 49.97576 -2.10370 19701 ft 410 kts 203°
2026-05-04 19:40 49.94923 -2.11851 19047 ft 404 kts 193°
2026-05-04 19:40 49.92188 -2.12773 18360 ft 400 kts 190°
2026-05-04 19:40 49.89470 -2.13672 17591 ft 398 kts 191°
2026-05-04 19:41 49.86781 -2.14576 16929 ft 393 kts 191°
2026-05-04 19:41 49.84131 -2.15474 16069 ft 385 kts 191°
2026-05-04 19:41 49.81564 -2.16348 15120 ft 380 kts 191°
2026-05-04 19:41 49.79002 -2.17220 14285 ft 373 kts 191°
2026-05-04 19:42 49.76515 -2.18067 13679 ft 360 kts 191°
2026-05-04 19:42 49.74098 -2.18888 12885 ft 351 kts 191°
2026-05-04 19:42 49.71684 -2.19704 11586 ft 359 kts 191°
2026-05-04 19:42 49.69258 -2.20694 10557 ft 360 kts 195°
2026-05-04 19:43 49.66873 -2.21765 9715 ft 354 kts 195°
2026-05-04 19:43 49.64555 -2.22801 9363 ft 338 kts 195°
2026-05-04 19:43 49.62340 -2.23789 9197 ft 323 kts 195°
2026-05-04 19:43 49.60230 -2.24730 9058 ft 309 kts 195°
2026-05-04 19:44 49.58223 -2.25624 8920 ft 292 kts 195°
2026-05-04 19:44 49.56306 -2.26476 8416 ft 284 kts 195°
2026-05-04 19:44 49.54415 -2.27316 7788 ft 282 kts 195°
2026-05-04 19:44 49.52572 -2.28133 7434 ft 271 kts 195°
2026-05-04 19:45 49.50799 -2.28922 7269 ft 253 kts 195°
2026-05-04 19:45 49.49168 -2.29647 6942 ft 243 kts 195°
2026-05-04 19:45 49.47538 -2.30368 6515 ft 244 kts 195°
2026-05-04 19:45 49.45899 -2.31091 6105 ft 244 kts 195°
2026-05-04 19:46 49.44279 -2.31806 5745 ft 241 kts 195°
2026-05-04 19:46 49.42663 -2.32521 5319 ft 242 kts 195°
2026-05-04 19:46 49.41045 -2.33236 4941 ft 240 kts 195°
2026-05-04 19:46 49.39441 -2.33945 4531 ft 241 kts 195°
2026-05-04 19:47 49.37832 -2.34655 4176 ft 238 kts 195°
2026-05-04 19:47 49.36246 -2.35353 3850 ft 235 kts 195°
2026-05-04 19:47 49.34678 -2.36043 3481 ft 235 kts 195°
2026-05-04 19:47 49.33135 -2.36723 3142 ft 231 kts 195°
2026-05-04 19:48 49.31591 -2.37403 2658 ft 231 kts 195°
2026-05-04 19:48 49.30053 -2.38081 2374 ft 227 kts 195°
2026-05-04 19:48 49.28575 -2.38732 2269 ft 215 kts 195°
2026-05-04 19:48 49.27182 -2.39346 2232 ft 199 kts 195°
2026-05-04 19:49 49.25899 -2.39911 2070 ft 187 kts 194°
2026-05-04 19:49 49.24628 -2.40469 2007 ft 193 kts 194°
2026-05-04 19:49 49.23361 -2.41022 2003 ft 189 kts 195°
2026-05-04 19:49 49.22086 -2.41580 2003 ft 191 kts 194°
2026-05-04 19:50 49.20794 -2.41866 1995 ft 187 kts 165°
2026-05-04 19:50 49.19762 -2.40769 2013 ft 184 kts 121°
2026-05-04 19:50 49.19361 -2.38994 1998 ft 167 kts 95°
2026-05-04 19:50 49.19347 -2.37379 1991 ft 139 kts 84°
2026-05-04 19:51 49.19442 -2.35921 2002 ft 141 kts 81°
2026-05-04 19:51 49.19560 -2.34494 1996 ft 128 kts 81°
2026-05-04 19:51 49.19672 -2.33141 1932 ft 129 kts 81°
2026-05-04 19:51 49.19783 -2.31791 1760 ft 126 kts 81°
2026-05-04 19:52 49.19894 -2.30456 1589 ft 127 kts 81°
2026-05-04 19:52 49.20004 -2.29120 1420 ft 126 kts 81°
2026-05-04 19:52 49.20114 -2.27790 1243 ft 126 kts 81°
2026-05-04 19:52 49.20224 -2.26461 1069 ft 126 kts 81°
2026-05-04 19:53 49.20333 -2.25135 899 ft 125 kts 81°
2026-05-04 19:53 49.20444 -2.23816 732 ft 125 kts 80°
2026-05-04 19:53 49.20546 -2.22500 566 ft 125 kts 80°
2026-05-04 19:53 49.20661 -2.21193 396 ft 124 kts 80°
2026-05-04 19:54 49.20773 -2.19913 281 ft 111 kts 82°
2026-05-04 19:54 49.20814 -2.19201 282 ft 30 kts 94°
2026-05-04 19:54 49.20764 -2.18915 282 ft 25 kts 113°
2026-05-04 19:54 49.20704 -2.18877 285 ft 4 kts 258°
2026-05-04 19:55 49.20698 -2.18945 282 ft 9 kts 262°
2026-05-04 19:55 49.20687 -2.19060 281 ft 12 kts 261°
2026-05-04 19:55 49.20681 -2.19198 281 ft 13 kts 279°
2026-05-04 19:55 49.20699 -2.19313 281 ft 8 kts 283°
2026-05-04 19:56 49.20709 -2.19417 281 ft 12 kts 270°
2026-05-04 19:56 49.20694 -2.19556 281 ft 14 kts 254°
2026-05-04 19:56 49.20658 -2.19641 281 ft 9 kts 211°
2026-05-04 19:56 49.20604 -2.19662 280 ft 9 kts 169°
2026-05-04 19:57 49.20582 -2.19649 284 ft 0 kts 158°